Washington County, Texas, United States
Lat: 30.22N, Lon: 96.44W
Wx Zone: TXZ197
Local Info
Past Weather Observations for Today

NOTE: This archive is for the closest National Weather Service station to Washington County. Information may differ from the station used for current weather conditions.

Click here for Long-term Archive

Time Weather Temperature Dewpoint Humidity Pressure Winds Precip Visibility
13:55
Clear
88°F / 31°C 66°F / 19°C 49% 29.98 in
(1015 mb)
SSW 4.6 mph
(SSW 7 kph)
- 10SM
13:35
Clear
86°F / 30°C 66°F / 19°C 52% 29.98 in
(1015 mb)
SSW 5.8 mph
(SSW 9 kph)
- 10SM
13:15
Clear
86°F / 30°C 66°F / 19°C 52% 29.98 in
(1015 mb)
SW 5.8 mph
(SW 9 kph)
- 10SM
12:55
Clear
86°F / 30°C 66°F / 19°C 52% 30.01 in
(1016 mb)
Calm - 10SM
12:35
Clear
86°F / 30°C 66°F / 19°C 52% 30.01 in
(1016 mb)
SSW 5.8 mph
(SSW 9 kph)
- 10SM
12:15
Clear
84°F / 29°C 66°F / 19°C 55% 30.01 in
(1016 mb)
SSW 8.1 mph
(SSW 13 kph)
- 10SM
11:55
Clear
82°F / 28°C 68°F / 20°C 62% 29.98 in
(1015 mb)
W 4.6 mph
(W 7 kph)
- 10SM
11:35
Clear
81°F / 27°C 68°F / 20°C 66% 29.98 in
(1015 mb)
SW 5.8 mph
(SW 9 kph)
- 10SM
11:15
Clear
81°F / 27°C 68°F / 20°C 66% 29.98 in
(1015 mb)
SSW 4.6 mph
(SSW 7 kph)
- 10SM
10:55
Clear
81°F / 27°C 68°F / 20°C 66% 30.01 in
(1016 mb)
W 9.2 mph
(W 15 kph)
- 10SM
10:35
Clear
81°F / 27°C 68°F / 20°C 66% 30.01 in
(1016 mb)
SW 8.1 mph
(SW 13 kph)
- 10SM
10:15
Clear
79°F / 26°C 66°F / 19°C 65% 29.98 in
(1015 mb)
SSE 9.2 mph
(SSE 15 kph)
- 10SM
09:55
Clear
77°F / 25°C 68°F / 20°C 74% 29.98 in
(1015 mb)
S 11.5 mph
(S 19 kph)
- 10SM
09:35
Clear
75°F / 24°C 70°F / 21°C 83% 30.01 in
(1016 mb)
SSW 6.9 mph
(SSW 11 kph)
- 10SM
09:15
Clear
73°F / 23°C 70°F / 21°C 89% 30.01 in
(1016 mb)
W 8.1 mph
(W 13 kph)
- 10SM
08:55
Clear
72°F / 22°C 68°F / 20°C 88% 29.98 in
(1015 mb)
WNW 5.8 mph
(WNW 9 kph)
- 10SM
08:35
Clear
Light Rain
70°F / 21°C 68°F / 20°C 94% 29.95 in
(1014 mb)
SE 9.2 mph
(SE 15 kph)
- 10SM
08:15
Partly Cloudy
70°F / 21°C 68°F / 20°C 94% 29.95 in
(1014 mb)
SSE 8.1 mph
(SSE 13 kph)
- 10SM
07:55
Partly Cloudy
Light Rain
70°F / 21°C 68°F / 20°C 94% 29.95 in
(1014 mb)
SE 9.2 mph
(SE 15 kph)
- 10SM
07:35
Partly Cloudy
70°F / 21°C 68°F / 20°C 94% 29.98 in
(1015 mb)
Calm - 10SM
07:15
Partly Cloudy
68°F / 20°C 68°F / 20°C 100% 29.92 in
(1013 mb)
S 6.9 mph
(S 11 kph)
- 10SM
06:55
Clear
68°F / 20°C 68°F / 20°C 100% 29.89 in
(1012 mb)
SE 11.5 mph
(SE 19 kph)
0.01 in
(0.25 mm)
10SM
06:35
Clear
68°F / 20°C 68°F / 20°C 100% 29.92 in
(1013 mb)
SSE 6.9 mph
(SSE 11 kph)
- 10SM
06:15
Clear
68°F / 20°C 68°F / 20°C 100% 29.92 in
(1013 mb)
SE 6.9 mph
(SE 11 kph)
- 10SM
05:55
Clear
68°F / 20°C 68°F / 20°C 100% 29.95 in
(1014 mb)
E 8.1 mph
(E 13 kph)
- 10SM
05:35
Clear
68°F / 20°C 68°F / 20°C 100% 29.95 in
(1014 mb)
Calm - 10SM
05:15
Clear
Thunder Storms
68°F / 20°C 68°F / 20°C 100% 29.95 in
(1014 mb)
Calm - 10SM
04:55
Clear
68°F / 20°C 66°F / 19°C 94% 29.98 in
(1015 mb)
SW 3.5 mph
(SW 6 kph)
- 10SM
04:35
Clear
68°F / 20°C 66°F / 19°C 94% 29.98 in
(1015 mb)
SW 6.9 mph
(SW 11 kph)
- 10SM
04:15
Clear
Light Rain
68°F / 20°C 66°F / 19°C 94% 29.98 in
(1015 mb)
SSW 4.6 mph
(SSW 7 kph)
- 10SM
03:55
Mostly Cloudy
68°F / 20°C 68°F / 20°C 100% 29.98 in
(1015 mb)
W 8.1 mph
(W 13 kph)
- 7SM
03:35
Mostly Cloudy
Rain
70°F / 21°C 68°F / 20°C 94% 30.01 in
(1016 mb)
W 11.5 mph
(W 19 kph)
- 10SM
03:15
Mostly Cloudy
Thunder Storms
70°F / 21°C 68°F / 20°C 94% 30.01 in
(1016 mb)
SSW 13.8 mph
(SSW 22 kph)
- 10SM
02:55
Mostly Cloudy
77°F / 25°C 75°F / 24°C 94% 29.98 in
(1015 mb)
SSW 24.2 mph
(SSW 39 kph)
- 7SM
02:35
Overcast
Heavy Rain
77°F / 25°C 75°F / 24°C 94% 29.95 in
(1014 mb)
S 10.4 mph
(S 17 kph)
- 4SM
02:15
Mostly Cloudy
Thunder Storms
77°F / 25°C 75°F / 24°C 94% 29.95 in
(1014 mb)
SSE 6.9 mph
(SSE 11 kph)
- 4SM
01:55
Partly Cloudy
Thunder Storms
79°F / 26°C 75°F / 24°C 89% 29.98 in
(1015 mb)
S 10.4 mph
(S 17 kph)
- 10SM
01:35
Clear
Thunder Storms
79°F / 26°C 75°F / 24°C 89% 29.98 in
(1015 mb)
S 9.2 mph
(S 15 kph)
- 10SM
01:15
Clear
77°F / 25°C 75°F / 24°C 94% 29.98 in
(1015 mb)
SSE 8.1 mph
(SSE 13 kph)
- 10SM
00:55
Partly Cloudy
79°F / 26°C 75°F / 24°C 89% 29.98 in
(1015 mb)
SSE 8.1 mph
(SSE 13 kph)
- 10SM
00:35
Partly Cloudy
79°F / 26°C 75°F / 24°C 89% 30.01 in
(1016 mb)
S 8.1 mph
(S 13 kph)
- 10SM
00:15
Partly Cloudy
79°F / 26°C 75°F / 24°C 89% 29.98 in
(1015 mb)
SSE 10.4 mph
(SSE 17 kph)
- 10SM
Time Weather Temperature Dewpoint Humidity Pressure Winds Precip Visibility


Weather for websites

WeatherForYou.com, LLC is not responsible for any damages or problems caused by this service. Current weather conditions are obtained from the closest station including government and personal stations which may have varying degrees of accuracy. Weather forecasts are derived from the NOAA NDFD. Like all things, this site belongs to Jesus Christ... He just trusts us to maintain it. If you have any questions or comments email webmaster@weatherforyou.com

Copyright © 2015, WeatherForYou.com LLC. All rights reserved.